TimeMDT,TemperatureF,Dew PointF,Humidity,Sea Level PressureIn,VisibilityMPH,Wind Direction,Wind SpeedMPH,Gust SpeedMPH,PrecipitationIn,Events,Conditions,WindDirDegrees,DateUTC
12:54 AM,62.1,45.0,53,29.88,10.0,East,3.5,-,N/A,,Clear,80,2013-08-17 06:54:00
1:54 AM,60.1,44.1,55,29.87,10.0,SSE,5.8,-,N/A,,Clear,150,2013-08-17 07:54:00
2:54 AM,57.0,45.0,64,29.88,10.0,Calm,Calm,-,N/A,,Clear,0,2013-08-17 08:54:00
3:54 AM,59.0,44.1,58,29.89,10.0,SSW,8.1,-,N/A,,Clear,210,2013-08-17 09:54:00
4:54 AM,60.1,44.1,55,29.90,10.0,SW,10.4,-,N/A,,Clear,230,2013-08-17 10:54:00
5:54 AM,57.0,45.0,64,29.93,10.0,SSW,9.2,-,N/A,,Clear,210,2013-08-17 11:54:00
6:54 AM,54.0,46.0,75,29.96,10.0,East,3.5,-,N/A,,Clear,90,2013-08-17 12:54:00
7:54 AM,57.9,46.9,67,29.97,10.0,SE,5.8,-,N/A,,Clear,140,2013-08-17 13:54:00
8:54 AM,63.0,52.0,67,29.99,10.0,Calm,Calm,-,N/A,,Clear,0,2013-08-17 14:54:00
9:54 AM,72.0,46.9,41,29.99,10.0,West,4.6,-,N/A,,Clear,260,2013-08-17 15:54:00
10:54 AM,75.9,48.0,37,29.98,10.0,WSW,3.5,-,N/A,,Clear,240,2013-08-17 16:54:00
11:54 AM,80.1,48.9,34,29.98,10.0,NNE,3.5,-,N/A,,Clear,30,2013-08-17 17:54:00
12:54 PM,81.0,48.9,33,29.96,10.0,NNW,5.8,-,N/A,,Clear,330,2013-08-17 18:54:00
1:54 PM,82.9,50.0,32,29.94,10.0,NNE,8.1,-,N/A,,Clear,20,2013-08-17 19:54:00
2:54 PM,82.0,46.9,29,29.93,10.0,WSW,3.5,-,N/A,,Clear,240,2013-08-17 20:54:00
3:54 PM,84.9,46.9,27,29.90,10.0,WNW,5.8,-,N/A,,Clear,300,2013-08-17 21:54:00
4:54 PM,84.0,48.9,29,29.89,10.0,NNW,5.8,-,N/A,,Clear,340,2013-08-17 22:54:00
5:54 PM,84.0,51.1,32,29.88,10.0,NNW,5.8,-,N/A,,Clear,340,2013-08-17 23:54:00
6:54 PM,84.0,51.1,32,29.88,10.0,Calm,Calm,-,N/A,,Clear,0,2013-08-18 00:54:00
7:54 PM,78.1,53.1,42,29.89,10.0,SE,3.5,-,N/A,,Clear,130,2013-08-18 01:54:00
8:54 PM,70.0,55.0,59,29.89,10.0,East,6.9,-,N/A,,Clear,90,2013-08-18 02:54:00
9:54 PM,69.1,52.0,54,29.89,10.0,East,6.9,-,N/A,,Clear,80,2013-08-18 03:54:00
10:54 PM,64.9,51.1,61,29.89,10.0,ESE,5.8,-,N/A,,Clear,110,2013-08-18 04:54:00
11:54 PM,61.0,50.0,67,29.91,10.0,SSW,8.1,-,N/A,,Clear,200,2013-08-18 05:54:00